[[{"header":{"parameterUnit":"m.s-1","parameterCategory":1,"la1":30.2991,"la2":30.254,"lo1":-89.0895,"lo2":-89.0444,"dy":0.0017,"dx":0.0017,"nx":28,"ny":28,"refTime":"2024-12-20T09:00:00:Z","depth":0,"parameterNumber":2,"parameterNumberName":"U-component_of_WINDS"},"data":[0,0,0,0,0,0,0,0,0,0,0,0,0,0,0,0,0,0,0,0,0,0,0,0,0,0,0,0,0,0,0,0,0,0,0,0,0,0,0,0,0,0,0,0,0,0,0,0,0,0,0,0,0,0,0,0,0,0,-3.3587,-3.3588,0,-3.3633,-3.3633,-3.3634,-3.3508,-3.3505,-3.3501,-3.3497,-3.3544,-3.3549,-3.3553,0,0,0,0,0,0,0,0,0,0,0,0,0,-3.339,-3.3395,-3.3587,-3.3588,-3.3588,-3.3633,-3.3633,-3.3634,-3.3509,-3.3504,-3.35,-3.3495,-3.3542,-3.3548,-3.3554,0,0,0,0,0,0,0,0,0,0,0,0,0,-3.346,-3.3396,-3.3587,-3.3531,-3.3527,-3.3633,-3.3633,-3.3634,-3.351,-3.3504,-3.3498,-3.3493,-3.354,-3.3548,-3.3555,-3.3717,0,0,-3.3577,-3.358,0,0,0,0,0,0,0,0,-3.3456,-3.3467,-3.3539,-3.3535,-3.353,-3.3559,-3.3581,-3.3662,-3.3512,-3.3517,-3.3497,-3.349,-3.3554,-3.356,-3.3581,-3.3719,-3.3721,-3.3578,-3.3582,-3.3585,-3.3587,0,0,0,0,0,0,0,-3.3452,-3.3465,-3.3605,-3.354,-3.3535,-3.3504,-3.3507,-3.3596,-3.3567,-3.3516,-3.3507,-3.3514,-3.355,-3.3574,-3.3581,-3.3721,-3.3577,-3.3584,-3.3589,-3.3591,-3.3992,-3.3998,0,0,0,0,0,0,-3.3454,-3.3461,-3.3604,-3.3606,-3.3478,-3.3512,-3.3516,-3.3556,-3.3566,-3.3562,-3.3519,-3.3508,-3.3565,-3.3573,-3.3582,-3.3771,-3.3585,-3.3592,-3.3596,-3.3986,-3.3994,-3.4,0,0,0,0,0,0,-3.345,-3.3468,-3.3602,-3.3532,-3.3546,-3.3521,-3.3567,-3.356,-3.3583,-3.3568,-3.3562,-3.3549,-3.356,-3.3572,-3.3684,-3.3771,-3.3595,-3.3602,-3.3979,-3.3988,-3.3997,-3.4152,0,0,0,0,0,0,-3.3445,-3.3467,-3.3529,-3.3534,-3.355,-3.3704,-3.3573,-3.3565,-3.3596,-3.3583,-3.3595,-3.3591,-3.3557,-3.3673,-3.3691,-3.3778,-3.3608,-3.3971,-3.3983,-3.3994,-3.4139,-3.4166,-3.4188,0,0,0,0,0,-3.3439,-3.3571,-3.3533,-3.3551,-3.3627,-3.3709,-3.3718,-3.3676,-3.3604,-3.3666,-3.3655,-3.3591,-3.3759,-3.3686,-3.3705,-3.3795,-3.3965,-3.398,-3.3993,-3.4128,-3.416,-3.4188,0,0,0,0,0,0,-3.3578,-3.3571,-3.3528,-3.3667,-3.3689,-3.3688,-3.3764,-3.3712,-3.3755,-3.3741,-3.3686,-3.369,-3.3811,-3.3814,-3.3733,-3.3951,-3.3849,-3.3868,-3.3946,-3.3976,-3.4,-3.3997,-3.3614,0,0,0,0,0,-3.3625,-3.3692,-3.3682,-3.3805,-3.3818,-3.379,-3.3824,-3.3789,-3.381,-3.3819,-3.3817,-3.384,-3.3897,-3.3937,-3.3989,-3.4138,-3.4139,-3.421,-3.4234,-3.4255,-3.4272,-3.4349,-3.4381,-3.4047,-3.4047,-3.4046,0,0,-3.3722,-3.3727,-3.3773,-3.3833,-3.3846,-3.3917,-3.3799,-3.3878,-3.393,-3.3831,-3.3936,-3.3936,-3.3957,-3.4088,-3.4146,-3.4095,-3.4363,-3.4273,-3.4289,-3.4295,-3.4367,-3.4399,-3.4427,-3.4056,-3.4055,-3.4053,0,0,-3.3936,-3.3946,-3.4049,-3.4065,-3.4086,-3.4066,-3.4091,-3.4097,-3.4093,-3.4197,-3.4124,-3.4184,-3.4285,-3.4303,-3.4325,-3.4544,-3.4486,-3.4562,-3.4692,-3.4768,-3.4794,-3.4817,-3.4895,-3.4923,-3.4579,-3.4579,-3.458,0,-3.4055,-3.4158,-3.4109,-3.4193,-3.4222,-3.4135,-3.4238,-3.4255,-3.4294,-3.4315,-3.4256,-3.438,-3.4389,-3.4522,-3.4575,-3.4596,-3.4622,-3.4561,-3.4794,-3.4817,-3.4838,-3.4911,-3.494,-3.4589,-3.4588,-3.4587,-3.4586,0,-3.4302,-3.4375,-3.4455,-3.4493,-3.453,-3.4624,-3.4589,-3.4632,-3.4594,-3.4579,-3.4686,-3.4693,-3.4745,-3.4773,-3.4737,-3.4902,-3.4869,-3.4804,-3.47,-3.488,-3.4947,-3.4975,-3.4602,-3.4598,-3.4596,-3.4593,0,0,-3.4607,-3.4615,-3.4646,-3.4661,-3.4678,-3.4732,-3.4821,-3.4871,-3.4909,-3.4938,-3.5011,-3.5097,-3.5036,-3.5062,-3.5026,-3.5093,-3.5265,-3.5019,-3.5019,-3.5064,-3.5445,-3.5495,-3.5528,-3.5226,-3.5231,-3.5235,-3.5443,0,-3.4817,-3.497,-3.4927,-3.508,-3.5146,-3.5063,-3.514,-3.5158,-3.5147,-3.5201,-3.5187,-3.5249,-3.5164,-3.5179,-3.5242,-3.5231,-3.5341,-3.5215,-3.5293,-3.5296,-3.529,-3.5563,-3.5616,-3.5812,-3.547,-3.5474,-3.5477,0,-3.5083,-3.5121,-3.528,-3.5284,-3.531,-3.5381,-3.5422,-3.5475,-3.5493,-3.548,-3.5508,-3.5458,-3.5544,-3.544,-3.5558,-3.5473,-3.5502,-3.5501,-3.5508,-3.5514,-3.5398,-3.5576,-3.5874,-3.5903,-3.5519,-3.5515,-3.5512,0,-3.5289,-3.538,-3.5486,-3.5502,-3.551,-3.5561,-3.5566,-3.5579,-3.5611,-3.5647,-3.5667,-3.5713,-3.5739,-3.5775,-3.5739,-3.5666,-3.5862,-3.5755,-3.5853,-3.5854,-3.5898,-3.5896,-3.6205,-3.5917,-3.5917,-3.5916,-3.5916,0,-3.5528,-3.5628,-3.5578,-3.5644,-3.5754,-3.5704,-3.5813,-3.5809,-3.5821,-3.5883,-3.5815,-3.5875,-3.5823,-3.5878,-3.585,-3.5952,-3.5964,-3.5955,-3.5946,-3.5961,-3.5962,-3.598,-3.5965,-3.5924,-3.5922,-3.5921,-3.592,0,-3.5776,-3.5747,-3.5858,-3.5855,-3.5857,-3.5938,-3.5935,-3.5995,-3.5978,-3.6058,-3.6074,-3.6047,-3.6109,-3.6076,-3.6139,-3.612,-3.6251,-3.6224,-3.6246,-3.6238,-3.6338,-3.6329,-3.6669,-3.671,-3.6397,-3.64,-3.6402,0,-3.5931,-3.6006,-3.6012,-3.6049,-3.6059,-3.612,-3.6152,-3.6105,-3.6141,-3.6166,-3.6223,-3.6279,-3.632,-3.6422,-3.6408,-3.6456,-3.6429,-3.6545,-3.6436,-3.6448,-3.643,-3.6426,-3.6433,-3.6567,-3.6571,-3.6574,-3.6576,0,-3.6209,-3.619,-3.6239,-3.6284,-3.6324,-3.6357,-3.6383,-3.6417,-3.637,-3.6414,-3.6476,-3.6509,-3.6573,-3.6628,-3.6669,-3.6674,-3.6618,-3.661,-3.6635,-3.6652,-3.6661,-3.6656,-3.6305,-3.6603,-3.66,-3.6598,-3.6597,-3.6596,-3.6415,-3.6477,-3.649,-3.6547,-3.6562,-3.6588,-3.6644,-3.6633,-3.6684,-3.6733,-3.6701,-3.6774,-3.6788,-3.6837,-3.6849,-3.6904,-3.6858,-3.6895,-3.6904,-3.6914,-3.6927,-3.6652,-3.6912,-3.6911,-3.691,-3.6909,-3.6909,0,-3.6688,-3.6692,-3.6745,-3.6784,-3.6828,-3.6771,-3.6797,-3.6838,-3.6902,-3.6921,-3.6963,-3.7033,-3.7086,-3.7076,-3.7124,-3.717,-3.7145,-3.7184,-3.718,-3.7182,-3.6966,-3.6939,-3.7203,-3.7203,-3.7203,-3.7203,-3.7203,-3.7203,-3.6836,-3.6938,-3.6921,-3.7029,-3.7032,-3.7103,-3.7122,-3.7146,-3.716,-3.7241,-3.7285,-3.7277,-3.7284,-3.7331,-3.7377,-3.7372,-3.7393,-3.7441,-3.7428,-3.7226,-3.7197,-3.7169,-3.7144,-3.7446,-3.7447,-3.7638,-3.764,-3.7641]},{"header":{"parameterUnit":"m.s-1","parameterCategory":1,"la1":30.2991,"la2":30.254,"lo1":-89.0895,"lo2":-89.0444,"dy":0.0017,"dx":0.0017,"nx":28,"ny":28,"refTime":"2024-12-20T09:00:00:Z","depth":0,"parameterNumber":3,"parameterNumberName":"V-component_of_WINDS"},"data":[0,0,0,0,0,0,0,0,0,0,0,0,0,0,0,0,0,0,0,0,0,0,0,0,0,0,0,0,0,0,0,0,0,0,0,0,0,0,0,0,0,0,0,0,0,0,0,0,0,0,0,0,0,0,0,0,0,0,-4.9626,-4.9626,0,-4.9694,-4.9695,-4.9696,-4.962,-4.9617,-4.9614,-4.9612,-4.9678,-4.9682,-4.9687,0,0,0,0,0,0,0,0,0,0,0,0,0,-4.9423,-4.9428,-4.9625,-4.9626,-4.9627,-4.9694,-4.9695,-4.9696,-4.962,-4.9617,-4.9613,-4.961,-4.9677,-4.9682,-4.9687,0,0,0,0,0,0,0,0,0,0,0,0,0,-4.9504,-4.9429,-4.9625,-4.9598,-4.9596,-4.9694,-4.9695,-4.9696,-4.9621,-4.9617,-4.9613,-4.9609,-4.9675,-4.9681,-4.9688,-4.9815,0,0,-4.9708,-4.9711,0,0,0,0,0,0,0,0,-4.9499,-4.9511,-4.9601,-4.96,-4.9598,-4.9644,-4.9648,-4.9736,-4.9622,-4.9612,-4.9611,-4.9606,-4.967,-4.9677,-4.9699,-4.9818,-4.9821,-4.9709,-4.9713,-4.9716,-4.9718,0,0,0,0,0,0,0,-4.9494,-4.9508,-4.9652,-4.9602,-4.9601,-4.958,-4.9587,-4.9664,-4.9664,-4.9612,-4.9607,-4.9616,-4.9668,-4.9693,-4.97,-4.9822,-4.9709,-4.9715,-4.9719,-4.9721,-5.0045,-5.005,0,0,0,0,0,0,-4.9492,-4.9504,-4.965,-4.9654,-4.9537,-4.9587,-4.9595,-4.9634,-4.9663,-4.9663,-4.962,-4.9612,-4.9683,-4.9692,-4.9702,-4.9851,-4.9716,-4.9722,-4.9726,-5.0041,-5.0046,-5.0051,0,0,0,0,0,0,-4.9488,-4.9506,-4.9647,-4.9578,-4.9594,-4.9595,-4.964,-4.9637,-4.9662,-4.9669,-4.9668,-4.9645,-4.968,-4.9693,-4.9787,-4.9852,-4.9725,-4.9731,-5.0035,-5.0043,-5.0049,-5.0151,0,0,0,0,0,0,-4.9482,-4.9505,-4.9555,-4.9579,-4.9598,-4.9734,-4.9644,-4.9642,-4.9674,-4.9665,-4.9692,-4.9693,-4.9678,-4.9777,-4.9794,-4.9859,-4.9736,-5.003,-5.0039,-5.0047,-5.0141,-5.016,-5.0176,0,0,0,0,0,-4.9475,-4.958,-4.9558,-4.9576,-4.9661,-4.9737,-4.9748,-4.973,-4.9679,-4.9728,-4.9732,-4.9692,-4.9843,-4.9788,-4.9805,-4.9874,-5.0025,-5.0036,-5.0046,-5.0134,-5.0156,-5.0176,0,0,0,0,0,0,-4.9563,-4.9583,-4.9558,-4.9675,-4.9705,-4.9725,-4.9786,-4.9755,-4.98,-4.9789,-4.9764,-4.977,-4.987,-4.9881,-4.982,-4.9996,-4.9925,-4.994,-4.9986,-5.0008,-5.0025,-5.0019,-4.9742,0,0,0,0,0,-4.9596,-4.9658,-4.9672,-4.9773,-4.9789,-4.9785,-4.9818,-4.9801,-4.9831,-4.9843,-4.9854,-4.9884,-4.9937,-4.9973,-5.0023,-5.0143,-5.0146,-5.0198,-5.0215,-5.0229,-5.0242,-5.0303,-5.0326,-5.0085,-5.0085,-5.0085,0,0,-4.9664,-4.9683,-4.9724,-4.9791,-4.9812,-4.9875,-4.9797,-4.9867,-4.9912,-4.9854,-4.9943,-4.9952,-4.9983,-5.009,-5.0138,-5.0102,-5.0309,-5.0243,-5.0254,-5.0259,-5.0316,-5.0339,-5.0359,-5.0093,-5.0091,-5.009,0,0,-4.982,-4.9842,-4.9928,-4.9951,-4.9984,-4.998,-5.0001,-5.0025,-5.0029,-5.0119,-5.0075,-5.0128,-5.0221,-5.0244,-5.0268,-5.0431,-5.0394,-5.0448,-5.0538,-5.0598,-5.0617,-5.0634,-5.0689,-5.071,-5.046,-5.046,-5.0461,0,-4.9901,-4.9996,-4.9975,-5.0048,-5.0078,-5.0028,-5.0113,-5.0135,-5.0183,-5.0204,-5.0164,-5.0279,-5.0296,-5.0406,-5.0446,-5.0468,-5.0488,-5.0444,-5.0616,-5.0633,-5.0648,-5.0701,-5.0722,-5.0466,-5.0466,-5.0465,-5.0465,0,-5.0091,-5.0157,-5.0222,-5.027,-5.0307,-5.0386,-5.0375,-5.0414,-5.0394,-5.0394,-5.0484,-5.0503,-5.0554,-5.0579,-5.0561,-5.0687,-5.0663,-5.062,-5.0548,-5.0677,-5.0726,-5.0747,-5.0475,-5.0473,-5.0471,-5.047,0,0,-5.0306,-5.034,-5.0364,-5.0384,-5.0416,-5.0466,-5.0541,-5.0592,-5.0625,-5.0659,-5.072,-5.0799,-5.0759,-5.0786,-5.0769,-5.0822,-5.0947,-5.0772,-5.0772,-5.0802,-5.1084,-5.1115,-5.1139,-5.0923,-5.0927,-5.093,-5.1081,0,-5.0461,-5.0593,-5.0576,-5.0701,-5.076,-5.0712,-5.0777,-5.0803,-5.0804,-5.0852,-5.0853,-5.0909,-5.0853,-5.0868,-5.0919,-5.0921,-5.1003,-5.091,-5.0977,-5.0979,-5.097,-5.1165,-5.1199,-5.1341,-5.11,-5.1103,-5.1106,0,-5.0661,-5.0702,-5.0834,-5.0854,-5.0878,-5.0938,-5.0981,-5.103,-5.1056,-5.1053,-5.1083,-5.1055,-5.1128,-5.1055,-5.1153,-5.109,-5.1116,-5.1122,-5.1126,-5.1131,-5.105,-5.1174,-5.1386,-5.1407,-5.1136,-5.1134,-5.1131,0,-5.0801,-5.089,-5.0979,-5.0998,-5.1025,-5.1067,-5.108,-5.1103,-5.1134,-5.1172,-5.1191,-5.1237,-5.1262,-5.1297,-5.1282,-5.1231,-5.1382,-5.1309,-5.138,-5.138,-5.1413,-5.1411,-5.1631,-5.1433,-5.1432,-5.1432,-5.1432,0,-5.0976,-5.1058,-5.1042,-5.1098,-5.1187,-5.1165,-5.1253,-5.126,-5.128,-5.1334,-5.1295,-5.1346,-5.1323,-5.1372,-5.136,-5.1442,-5.1454,-5.1452,-5.1447,-5.1455,-5.1455,-5.1471,-5.146,-5.1438,-5.1436,-5.1435,-5.1434,0,-5.1148,-5.1142,-5.1236,-5.1253,-5.1259,-5.1324,-5.1338,-5.1388,-5.1386,-5.1454,-5.1469,-5.1465,-5.152,-5.1508,-5.1568,-5.156,-5.1662,-5.1646,-5.1654,-5.1649,-5.172,-5.1713,-5.1957,-5.1987,-5.1771,-5.1773,-5.1775,0,-5.126,-5.1322,-5.1346,-5.1379,-5.1395,-5.145,-5.1481,-5.1461,-5.1495,-5.1529,-5.1575,-5.1626,-5.1667,-5.1756,-5.1758,-5.1803,-5.1787,-5.1869,-5.1793,-5.1798,-5.1786,-5.1782,-5.1786,-5.1884,-5.1886,-5.1888,-5.189,0,-5.1458,-5.1451,-5.1498,-5.1544,-5.1582,-5.1617,-5.1648,-5.1677,-5.1659,-5.1699,-5.1755,-5.1786,-5.1847,-5.1898,-5.194,-5.1951,-5.1917,-5.1914,-5.1932,-5.194,-5.1941,-5.1939,-5.1693,-5.1908,-5.1906,-5.1905,-5.1904,-5.1903,-5.1602,-5.1653,-5.1678,-5.1731,-5.1752,-5.1781,-5.1829,-5.1832,-5.1879,-5.1927,-5.1912,-5.1976,-5.1998,-5.205,-5.2066,-5.2114,-5.2083,-5.211,-5.2117,-5.2124,-5.2131,-5.1934,-5.2122,-5.2121,-5.212,-5.212,-5.212,0,-5.1796,-5.1809,-5.1858,-5.1902,-5.1943,-5.1909,-5.194,-5.1977,-5.2033,-5.2058,-5.2098,-5.2161,-5.2209,-5.2214,-5.2259,-5.2296,-5.2282,-5.2309,-5.2305,-5.2308,-5.2158,-5.2136,-5.232,-5.232,-5.232,-5.232,-5.232,-5.2319,-5.1901,-5.1986,-5.1982,-5.2076,-5.2087,-5.215,-5.217,-5.2196,-5.2215,-5.2288,-5.2328,-5.2331,-5.2347,-5.2393,-5.2435,-5.2435,-5.2452,-5.2485,-5.2479,-5.2339,-5.2319,-5.23,-5.2279,-5.249,-5.249,-5.2625,-5.2626,-5.2627]}]]